Weather History for KISQ - September, 2013

Change the Weather History Date:

Thursday, September 19, 2013

  Actual Average Record
Temperature  
Mean Temperature 65 °F -  
Max Temperature 68 °F 65 °F 79 °F (1948)
Min Temperature 62 °F 48 °F 30 °F (1969)
Growing Degree Days 15 (Base 50)    
Moisture  
Dew Point 63 °F    
Average Humidity 93    
Maximum Humidity 100    
Minimum Humidity 88    
Precipitation  
Precipitation 0.00 in - - ()
Sea Level Pressure  
Sea Level Pressure 29.84 in    
Wind  
Wind Speed 7 mph (SSW)    
Max Wind Speed 15 mph    
Max Gust Speed 23 mph    
Visibility 8 miles    
Events Rain    
Averages and records for this station are not official NWS values.
T = Trace of Precipitation, MM = Missing Value Source: NWS Daily Summary

Daily Weather History Graph

Daily Weather History Graph

Search for Another Location

Airport or City:

Trip Planner

Search our weather history database for the weather conditions in past years. The results will help you decide how hot, cold, wet, or windy it might be!

Date:

Astronomy

Sep. 19, 2013 Rise Set
Actual Time 7:28 AM EDT 7:47 PM EDT
Civil Twilight 6:58 AM EDT 8:17 PM EDT
Nautical Twilight 6:23 AM EDT 8:52 PM EDT
Astronomical Twilight 5:46 AM EDT 9:28 PM EDT
Moon 7:41 PM EDT (9/19) 7:39 AM EDT (9/19)
Length of Visible Light 13h 19m
Length of Day
12h 19m
Full, 100% of the Moon is Illuminated
Sep 19
Full
Sep 26
Last Quarter
Oct 4
New
Oct 11
First Quarter
Oct 18
Full

Hourly Weather History & Observations

Time (EDT) Temp. Dew Point Humidity Pressure Visibility Wind Dir Wind Speed Gust Speed Precip Events Conditions
12:15 AM 63.5 °F 61.3 °F 93% 29.92 in 10.0 mi Calm Calm - N/A   Overcast
12:35 AM 64.0 °F 61.2 °F 90% 29.92 in 10.0 mi SSW 3.5 mph - N/A   Overcast
12:56 AM 63.5 °F 61.0 °F 91% 29.92 in 10.0 mi Calm Calm - N/A   Overcast
1:15 AM 63.5 °F 61.2 °F 92% 29.91 in 10.0 mi South 6.9 mph - N/A   Overcast
1:36 AM 63.5 °F 61.7 °F 94% 29.91 in 7.0 mi South 4.6 mph - N/A   Overcast
1:56 AM 63.0 °F 61.7 °F 96% 29.90 in 7.0 mi Calm Calm - N/A   Overcast
2:15 AM 63.9 °F 62.2 °F 94% 29.89 in 7.0 mi South 4.6 mph - N/A   Overcast
2:36 AM 64.4 °F 61.9 °F 92% 29.89 in 7.0 mi SSW 3.5 mph - N/A   Overcast
2:56 AM 64.4 °F 61.2 °F 89% 29.88 in 10.0 mi Calm Calm - N/A   Overcast
3:15 AM 63.9 °F 60.8 °F 90% 29.88 in 10.0 mi SW 6.9 mph - N/A   Overcast
3:36 AM 63.5 °F 61.9 °F 94% 29.88 in 10.0 mi WSW 6.9 mph - N/A   Overcast
3:55 AM 62.8 °F 61.9 °F 97% 29.88 in 5.0 mi SW 8.1 mph - N/A   Overcast
4:15 AM 63.5 °F 62.6 °F 97% 29.88 in 5.0 mi SW 4.6 mph - N/A   Overcast
4:36 AM 63.1 °F 62.6 °F 98% 29.88 in 2.5 mi SSW 8.1 mph - N/A   Overcast
4:55 AM 63.5 °F 63.5 °F 100% 29.88 in 2.5 mi SSW 6.9 mph - N/A   Overcast
5:16 AM 64.0 °F 63.7 °F 99% 29.88 in 4.0 mi SW 6.9 mph 18.4 mph N/A Rain Light Rain
5:36 AM 63.9 °F 63.5 °F 99% 29.88 in 5.0 mi South 11.5 mph 20.7 mph N/A   Overcast
5:55 AM 64.0 °F 63.7 °F 99% 29.87 in 5.0 mi SW 10.4 mph 20.7 mph N/A   Light Drizzle
6:16 AM 63.5 °F 62.8 °F 97% 29.87 in 4.0 mi SW 9.2 mph 16.1 mph N/A Rain Rain
6:35 AM 64.0 °F 63.1 °F 97% 29.86 in 7.0 mi SSW 11.5 mph 18.4 mph N/A   Overcast
6:56 AM 63.1 °F 62.6 °F 98% 29.86 in 5.0 mi SSW 6.9 mph - N/A   Mostly Cloudy
7:15 AM 65.3 °F 63.0 °F 92% 29.86 in 10.0 mi SSW 12.7 mph 19.6 mph N/A   Clear
7:36 AM 64.4 °F 62.4 °F 93% 29.86 in 7.0 mi SSW 9.2 mph - N/A Rain Light Rain
7:56 AM 64.0 °F 62.1 °F 93% 29.87 in 10.0 mi SSW 8.1 mph - N/A   Mostly Cloudy
8:15 AM 65.3 °F 63.0 °F 92% 29.87 in 10.0 mi SSW 15.0 mph 23.0 mph N/A   Overcast
8:36 AM 65.3 °F 63.0 °F 92% 29.88 in 10.0 mi SSW 12.7 mph 21.9 mph N/A   Overcast
8:55 AM 65.5 °F 63.0 °F 92% 29.88 in 10.0 mi SSW 15.0 mph 20.7 mph N/A   Overcast
9:16 AM 65.3 °F 62.8 °F 92% 29.88 in 10.0 mi SSW 13.8 mph 18.4 mph N/A   Overcast
9:36 AM 65.5 °F 62.8 °F 91% 29.88 in 10.0 mi SSW 12.7 mph 17.3 mph N/A   Overcast
9:55 AM 65.5 °F 62.6 °F 90% 29.88 in 10.0 mi SSW 10.4 mph - N/A   Overcast
10:16 AM 66.2 °F 63.0 °F 89% 29.87 in 10.0 mi SSW 12.7 mph 19.6 mph N/A   Overcast
10:36 AM 66.2 °F 63.5 °F 91% 29.87 in 10.0 mi SSW 12.7 mph 18.4 mph N/A   Overcast
10:55 AM 66.7 °F 63.5 °F 89% 29.86 in 10.0 mi South 13.8 mph 19.6 mph N/A   Overcast
11:16 AM 66.2 °F 63.1 °F 90% 29.86 in 10.0 mi SSW 8.1 mph - N/A   Overcast
11:35 AM 64.8 °F 62.6 °F 93% 29.87 in 10.0 mi SSW 8.1 mph - N/A   Overcast
11:55 AM 64.4 °F 62.4 °F 93% 29.86 in 10.0 mi SW 8.1 mph - N/A   Overcast
12:16 PM 64.8 °F 62.8 °F 93% 29.86 in 10.0 mi SSW 10.4 mph - N/A   Overcast
12:35 PM 65.7 °F 63.1 °F 92% 29.86 in 10.0 mi SSW 9.2 mph 17.3 mph N/A   Overcast
12:56 PM 68.0 °F 64.4 °F 88% 29.85 in 10.0 mi SSW 11.5 mph 18.4 mph N/A   Overcast
1:16 PM 67.3 °F 63.9 °F 89% 29.84 in 10.0 mi SW 8.1 mph 17.3 mph N/A   Overcast
1:35 PM 67.1 °F 63.7 °F 89% 29.84 in 10.0 mi SW 11.5 mph 18.4 mph N/A   Overcast
1:56 PM 68.0 °F 64.4 °F 88% 29.83 in 10.0 mi SSW 9.2 mph - N/A   Overcast
2:16 PM 66.4 °F 63.9 °F 92% 29.83 in 7.0 mi SSW 9.2 mph 16.1 mph N/A   Overcast
2:35 PM 66.6 °F 64.4 °F 93% 29.83 in 7.0 mi SSW 8.1 mph - N/A   Overcast
2:56 PM 66.7 °F 64.2 °F 92% 29.84 in 7.0 mi SSW 9.2 mph - N/A   Overcast
3:15 PM 65.7 °F 63.9 °F 94% 29.84 in 5.0 mi SSW 6.9 mph - N/A   Overcast
3:36 PM 67.1 °F 64.8 °F 92% 29.83 in 7.0 mi South 8.1 mph - N/A   Overcast
3:55 PM 66.4 °F 64.4 °F 93% 29.82 in 7.0 mi South 6.9 mph - N/A   Overcast
4:16 PM 66.9 °F 64.9 °F 93% 29.81 in 7.0 mi South 8.1 mph - N/A   Overcast
4:36 PM 67.1 °F 65.1 °F 93% 29.79 in 5.0 mi SSE 8.1 mph - N/A   Overcast
4:55 PM 66.7 °F 64.8 °F 93% 29.80 in 5.0 mi South 8.1 mph - N/A   Overcast
5:16 PM 66.2 °F 64.8 °F 95% 29.80 in 3.0 mi South 6.9 mph - N/A   Overcast
5:35 PM 65.7 °F 64.4 °F 96% 29.80 in 3.0 mi South 8.1 mph - N/A   Overcast
5:55 PM 65.7 °F 64.4 °F 96% 29.79 in 5.0 mi South 10.4 mph 16.1 mph N/A   Mostly Cloudy
6:16 PM 65.7 °F 63.9 °F 94% 29.80 in 7.0 mi South 13.8 mph 20.7 mph N/A   Scattered Clouds
6:35 PM 65.7 °F 63.9 °F 94% 29.80 in 10.0 mi South 11.5 mph 17.3 mph N/A   Mostly Cloudy
6:56 PM 65.7 °F 64.0 °F 94% 29.79 in 7.0 mi South 10.4 mph - N/A   Overcast
7:16 PM 65.5 °F 64.4 °F 96% 29.79 in 5.0 mi South 9.2 mph 16.1 mph N/A   Overcast
7:35 PM 65.3 °F 64.4 °F 97% 29.78 in 5.0 mi South 8.1 mph - N/A   Overcast
7:56 PM 65.3 °F 64.2 °F 96% 29.77 in 5.0 mi South 9.2 mph - N/A   Mostly Cloudy
8:16 PM 64.9 °F 63.9 °F 96% 29.77 in 7.0 mi SSE 4.6 mph - N/A   Mostly Cloudy
8:35 PM 64.9 °F 63.9 °F 96% 29.78 in 7.0 mi South 10.4 mph 16.1 mph N/A   Mostly Cloudy
8:56 PM 66.0 °F 64.2 °F 94% 29.77 in 10.0 mi SSE 9.2 mph 16.1 mph N/A   Overcast
9:15 PM 65.7 °F 63.9 °F 94% 29.77 in 10.0 mi SSE 5.8 mph - N/A   Overcast
9:36 PM 66.9 °F 64.6 °F 92% 29.76 in 10.0 mi SSE 10.4 mph 16.1 mph N/A   Overcast
9:56 PM 66.7 °F 64.6 °F 93% 29.74 in 10.0 mi SE 9.2 mph - N/A   Overcast
10:15 PM 66.7 °F 64.6 °F 93% 29.73 in 10.0 mi SE 9.2 mph - N/A   Overcast
10:36 PM 67.3 °F 64.9 °F 92% 29.73 in 10.0 mi SSE 6.9 mph - N/A   Overcast
10:56 PM 67.1 °F 64.8 °F 92% 29.73 in 10.0 mi SSE 5.8 mph - N/A   Overcast
11:16 PM 66.4 °F 64.6 °F 94% 29.73 in 10.0 mi SSE 4.6 mph - N/A   Overcast
11:36 PM 66.4 °F 64.6 °F 94% 29.72 in 10.0 mi SSE 5.8 mph - N/A   Overcast
11:55 PM 66.2 °F 64.6 °F 94% 29.72 in 10.0 mi SSE 3.5 mph - N/A   Overcast